sat.trackr.live / text

‹ back to catalog

COSMOS 2529 (757)

NORAD 43687 · 2018-086A

PAYLOAD ACTIVE UNKNOWN

§ Identity

Operator
Country
CIS
Launch date
2018-11-03
Launch site
PLMSC
Launch vehicle
Mass (kg)
RCS (m²)

Purposes: nav

External: N2YO · Heavens-Above · Gunter

§ Orbital elements

Epoch: 2026-05-25T04:30:00.356832Z

Period
675.73 min
Inclination
64.2931°
Eccentricity
0.0011484
Mean motion
2.13102011 rev/d
Perigee alt
19,100.6 km
Apogee alt
19,159.2 km
Semi-major
25,508.0 km
B*
0.0000e+0
RAAN
193.3710°
Arg perigee
256.0033°
Mean anomaly
103.9404°
Rev number
5,879

§ Raw data

COSMOS 2529 (757)1 43687U 18086A   26145.18750413  .00000047  00000+0  00000+0 0  99972 43687  64.2931 193.3710 0011484 256.0033 103.9404  2.13102011 58797

JSON: /api/v1/satellites/43687 · /tle

For live sub-satellite position, see the globe view (requires WebGL).

§ Visibility from observer

Set your observer location to see the next 7 days of passes ≥ 10°. The values pass through the URL so the page stays shareable.

No JS? Fill the form by hand. The geolocation button needs JavaScript.